Ireland West Airport Knock, Ireland

8:54 AM IST on May 27, 2017 (GMT +0100)
Connaught

Weather History for EIKN - September, 2012

Change the Weather History Date:

Friday, September 14, 2012

  Actual Average Record
Temperature  
Mean Temperature 55 °F -  
Max Temperature 60 °F - - ()
Min Temperature 50 °F - - ()
Degree Days  
Heating Degree Days 10    
Growing Degree Days 5 (Base 50)    
Moisture  
Dew Point 47 °F    
Average Humidity 74    
Maximum Humidity 88    
Minimum Humidity 58    
Precipitation  
Precipitation 0.00 in - - ()
Sea Level Pressure  
Sea Level Pressure 29.96 in    
Wind  
Wind Speed 15 mph ()    
Max Wind Speed 24 mph    
Max Gust Speed 38 mph    
Visibility 7.0 miles    
Events Rain    
T = Trace of Precipitation, MM = Missing Value Source: Averaged Metar Reports

Daily Weather History Graph

Daily Weather History Graph

Search for Another Location

Airport or City:

Trip Planner

Search our weather history database for the weather conditions in past years. The results will help you decide how hot, cold, wet, or windy it might be!

Date:

Astronomy

Sep. 14, 2012 Rise Set
Actual Time 7:07 AM IST 7:52 PM IST
Civil Twilight 6:31 AM IST 8:28 PM IST
Nautical Twilight 5:48 AM IST 9:11 PM IST
Astronomical Twilight 5:02 AM IST 9:57 PM IST
Moon 5:07 AM IST (9/14) 6:45 PM IST (9/14)
Length of Visible Light 13h 56m
Length of Day
12h 45m
Waning Crescent, 3% of the Moon is Illuminated
Sep 14
Waning Crescent
Sep 16
New
Sep 22
First Quarter
Sep 30
Full
Oct 8
Last Quarter

Hourly Weather History & Observations

Time (IST) Temp. Dew Point Humidity Pressure Visibility Wind Dir Wind Speed Gust Speed Precip Events Conditions
1:00 AM 53 °F 50 °F 86% 29.85 in - West 8.9 mph - -  
7:00 AM 52 °F 48 °F 83% 29.88 in 19 mi West 15.7 mph - -   Partly Cloudy
7:00 AM 51.8 °F 48.2 °F 88% 29.86 in 6.2 mi West 16.1 mph - N/A   Partly Cloudy
7:30 AM 51.8 °F 48.2 °F 88% 29.86 in 6.2 mi West 16.1 mph - N/A   Partly Cloudy
8:00 AM 51.8 °F 46.4 °F 82% 29.89 in 6.2 mi West 19.6 mph - N/A   Scattered Clouds
8:30 AM 53.6 °F 44.6 °F 72% 29.89 in 6.2 mi WNW 24.2 mph 38.0 mph N/A   Partly Cloudy
9:00 AM 53.6 °F 44.6 °F 72% 29.89 in 6.2 mi WNW 19.6 mph - N/A   Mostly Cloudy
9:30 AM 53.6 °F 46.4 °F 77% 29.92 in 6.2 mi WNW 23.0 mph - N/A Rain Light Rain
10:00 AM 53.6 °F 48.2 °F 82% 29.92 in 6.2 mi WNW 19.6 mph - N/A   Mostly Cloudy
10:30 AM 53.6 °F 46.4 °F 77% 29.92 in 6.2 mi WNW 20.7 mph 33.4 mph N/A   Mostly Cloudy
11:00 AM 55.4 °F 46.4 °F 72% 29.95 in 6.2 mi WNW 18.4 mph 29.9 mph N/A   Mostly Cloudy
11:30 AM 55.4 °F 46.4 °F 72% 29.95 in 6.2 mi WNW 18.4 mph - N/A   Mostly Cloudy
12:00 PM 55.4 °F 46.4 °F 72% 29.95 in 6.2 mi WNW 18.4 mph 32.2 mph N/A   Mostly Cloudy
12:30 PM 55.4 °F 46.4 °F 72% 29.98 in 6.2 mi WNW 18.4 mph 29.9 mph N/A   Mostly Cloudy
1:00 PM 57 °F 46 °F 58% 29.99 in 25 mi WNW 17.9 mph - -   Partly Cloudy
1:00 PM 57.2 °F 46.4 °F 67% 29.98 in 6.2 mi WNW 18.4 mph - N/A   Mostly Cloudy
1:30 PM 57.2 °F 46.4 °F 67% 29.98 in 6.2 mi WNW 20.7 mph - N/A   Mostly Cloudy
2:00 PM 59.0 °F 46.4 °F 63% 29.98 in 6.2 mi WNW 18.4 mph 31.1 mph N/A   Mostly Cloudy
2:30 PM 57.2 °F 46.4 °F 67% 29.98 in 6.2 mi NW 19.6 mph - N/A   Mostly Cloudy
3:00 PM 57.2 °F 46.4 °F 67% 30.01 in 6.2 mi WNW 18.4 mph - N/A   Mostly Cloudy
3:30 PM 59.0 °F 48.2 °F 67% 30.01 in 6.2 mi WNW 18.4 mph 29.9 mph N/A   Mostly Cloudy
4:00 PM 59.0 °F 48.2 °F 67% 30.01 in 6.2 mi WNW 16.1 mph - N/A   Mostly Cloudy
4:30 PM 59.0 °F 48.2 °F 67% 30.01 in 6.2 mi WNW 17.3 mph - N/A   Mostly Cloudy
5:00 PM 57.2 °F 48.2 °F 72% 30.01 in 6.2 mi WNW 16.1 mph - N/A   Scattered Clouds
5:30 PM 57.2 °F 48.2 °F 72% 30.01 in 6.2 mi WNW 13.8 mph - N/A   Scattered Clouds
6:00 PM 57.2 °F 48.2 °F 72% 30.04 in 6.2 mi WNW 12.7 mph - N/A   Mostly Cloudy
6:30 PM 57.2 °F 50.0 °F 77% 30.04 in 6.2 mi West 13.8 mph - N/A   Scattered Clouds
7:00 PM 56 °F 50 °F 73% 30.06 in 16 mi West 11.2 mph - -   Mostly Cloudy
7:00 PM 55.4 °F 50.0 °F 82% 30.04 in 6.2 mi West 10.4 mph - N/A   Mostly Cloudy